Location: Goettingen
(51.5300°N, 9.9433°E)
Time: 09:44:53
(UTC+02:00)

ISS - Pass Details

Date: 10 May 2025
Orbit: 416 x 419 km, 51.6° (Epoch: 18 May)

Event Time Altitude Azimuth Distance (km) Brightness Sun altitude
Rises 22:58:53 0° 240° (WSW) 2,353 0.1 -14.4°
Reaches altitude 10° 23:01:00 10° 235° (SW) 1,492 -1.0 -14.6°
Maximum altitude 23:04:16 51° 158° (SSE) 530 -3.7 -14.8°
Drops below altitude 10° 23:07:32 10° 82° (E) 1,496 -1.2 -15.1°
Enters shadow 23:07:48 - 81° (E) 1,603 -1.0 -15.1°
